Погода Есенгылы

Погода Есенгылы : погода сейчас, прогноз погоды и архив. Всё, что Вы хотите узнать о погоде Есенгылы!

Хотите узнать прогноз погоды Есенгылы? Тогда Вам сюда: Погода Есенгылы

Поиск расширенной информации на нашем сайте:

Другие новости

Новости СМИ2

Главная страница сайта

Новости сайта

03.07.2017

Напоминаем, что на нашем специализированном сайте Метеоцентр.Азия вы можете получить высокодетализированные автоматические прогнозы погоды по пунктам России, СНГ и мира в авиационном формате (включающие направление и скорость ветра, видимость, явления погоды, количество и форму облачности, нижнюю и верхнюю границу облачности).


Погода Есенгылы - сегодня

Время (UTC), дата Ветер
(°,м/с) 
Видим.   Явления Облачность Т
(°С)
Тd
(°С)
f(%) Тe
(°С)
Pmin
(гПа)
dP
(гПа)
Po
(мм)
O2
(г/м3)
Тmin Tmax R s Состояние
почвы
12 18.11.18 290 (З) 10 км    8/0 средняя 
[Ac trans]
+18.9 +10.4 58 +20  1022.9  -0.5  769  288           
15 18.11.18 270 (З) 10 км    8/8 600 м 
[Sc]
+17 +12.9 77 +22  1022.2  -0.7  769  289    +20.7       
18 18.11.18 300 (СЗ) 10 км    4/0 верхняя 
[Ci fib]
+13.4 +10.2 81 +16  1023.4  1.3  770  294    +20.7       
21 18.11.18 020 (С) 10 км    8/8 600 м 
[Sc]
+14.4 +12.2 87 +20  1022.8  -0.6  769  292           
00 19.11.18 050 (СВ) 2000 м    8/0 верхняя 
[Cu Sc|Ci fib]
+12.2 +7.3 72 +13    0.3             
03 19.11.18 030 (СВ) 10 км    10/10 600 м 
[Sc]
+11.4 +7 74 +10  1024.2  1.3  770  297           
06 19.11.18 030 (СВ) 10 км    10/10 600 м 
[Sc]
+12.2 +8.8 80 +11  1024.7  0.4  771  296  +11.3         
09 19.11.18 110 (В) 10 км    10/10 600 м 
[Sc]
+13 +8.4 74 +13  1024.8  0.1  771  295           
12 19.11.18 090 (В) 10 км    10/10 600 м 
[Sc]
+14.2 +8.4 68 +15  1026  1.2  772  294           
15 19.11.18 040 (СВ) 10 км    10/10 600 м 
[Sc]
+11.8 +7.3 74 +12  1025.5  -0.5  771  297    +14.3       
18 19.11.18 050 (СВ) 10 км    10/10 600 м 
[Sc]
+11.2 +7.3 77 +11  1025.8  0.4  772  297    +14.3       
21 19.11.18 180 (Ю) 10 км    4/0 средняя 
[Ac trans]
+8.8 +5.5 80 +9  1025.8  772  300           
00 20.11.18 050 (СВ) 10 км    ясно 
+7.8 +5.1 83 +8  1025.8  772  301           
03 20.11.18 070 (В) 10 км    ясно 
+4.9 +3.2 89 +4  1025  -0.8  771  305           
06 20.11.18 070 (В) 10 км    8/0 верхняя 
[Ci fib]
+11.1 +7.1 76 +10  1025.6  0.6  771  298  +4.8         
09 20.11.18 070 (В) 10 км    8/0 верхняя 
[Ci fib]
+16.6 +6.2 50 +16  1022.9  -2.9  769  291           
12 20.11.18 070 (В) 10 км    8/0 верхняя 
[Ci fib]
+18.1 +4.5 41 +18  1020.8  -2.1  768  289           
15 20.11.18 070 (В) 10 км    8/0 верхняя 
[Ci fib]
+12.4 +6.1 65 +12  1020.2  -0.5  767  295    +18.2       
18 20.11.18 050 (СВ) 10 км    6/0 верхняя 
[Ci fib]
+10 +5.1 72 +10  1019.1  -1.1  766  297    +18.2       
21 20.11.18 040 (СВ) 10 км    ясно 
+6.7 +2.3 73 +6  1016.8  -2.2  765  300           
00 21.11.18 040 (СВ) 10 км    3/0 средняя 
[Ac trans]
+4.5 +1.7 82 +3  1015.4  -1.4  764  303           
03 21.11.18 060 (СВ) 10 км    4/0 средняя 
[Ac trans]
+4.2 +1.9 85 +4  1014.9  -0.5  763  303           
06 21.11.18 070 (В) 10 км    ясно 
+9.8 +6.5 80 +11  1016  764  296  +3.7         
09 21.11.18 330 (СЗ) 10 км    ясно 
+18.7 +4.8 40 +20  1015.5  -0.6  764  287           
12 21.11.18 280 (З) 10 км    8/8 600 м 
[Sc]
+15.9 +5.1 49 +16  1016.3  0.9  764  290           
Время (UTC), дата Ветер
(°,м/с) 
Видим.   Явления Облачность Т
(°С)
Тd
(°С)
f(%) Тe
(°С)
Pmin
(гПа)
dP
(гПа)
Po
(мм)
O2
(г/м3)
Тmin Tmax R s Состояние
почвы

Для получения пояснительной информации подведите курсор к названию столбца.

ПОГОДА Есенгылы - архив

Всё, что Вы хотите узнать о погоде Есенгылы - удобно и подробно!

Выберите нужную дату (начиная с 1 января 2015* года) и нажмите кнопку "Найти".
Будут отображены архивные сводки погоды по пункту Есенгылы, начиная с указанной даты.


Отображать данные в формате CSV (для использования в таблицах Excel)


Внимание! Наш архив погоды предназначен исключительно для личного некоммерческого использования в познавательных целях. Если Вам необходимы официальные справки о состоянии погоды (для производственных, юридических, коммерческих и т.п. целей), обращайтесь в органы Росгидромета.

*Примечание: данная дата относится к архиву по метеостанциям СССР (Россия, СНГ, Балтия).
Архив по метеостанциям Зарубежной Европы и Азии (кроме Китая) хранится 10 дней, по другим регионам земного шара (Китай, Африка, Америка, Австралия, Океания) - 1 день.

Есенгылы - район местоположения метеостанции


Название, широта, долгота, высота метеостанции:
Есенгылы 37.5°ш. 53.6°д. -22 м над ур. моря [Туркменистан]

Дополнительная информация

В oтличие oт бoльшинства пoгoдных сайтoв мы публикуем пoдрoбную метеoинфoрмацию в детальнoм прoфессиoнальнoм фoрмате.

Характеристики температуры и влажнoсти вoздуха измеряются на высoте 2 м в тени вдали oт зданий и деревьев.
Скoрoсть ветра измеряется на высoте 10 м (на урoвне рoста челoвека скoрoсть ветра ниже в 1.5-2 раза). Если метеoстанция нахoдится в гoрoде или в лесу, тo скoрoсть ветра занижена на 2-4 м/с пo сравнению с oткрытым местoм. Скoрoсть ветра над акватoриями крупных рек и oзёр, а также на вершинах хoлмoв на 2-5 м/с выше, чем в oбычных услoвиях.
Атмoсфернoе давление в разных тoчках местнoсти мoжет значительнo oтличаться oт давления на метеoстанции, в зависимoсти oт услoвий рельефа (при пoдъёме на 10 м давление пoнижается примернo на 1 мм рт.ст.).